MEA267 OLBA-LTFM

Flight info

Callsign MEA267
Flight time N/A
Altitude 38000
Route KAD UR219 KUKLA M31 DESPO DCT VOLBE DCT VESAR UL620 OKLAM UB545 KFK UM855 SISPI
Aircraft A320/M-SDE3FGHIRWY/LB1

Departure

Time 2026-05-04 13:58
Airport Beirut Rafic Hariri International Airport (OLBA)

Arrival

Time N/A
Airport İstanbul Airport (LTFM)
Time Latitude Longitude Altitude Speed Heading
2026-05-04 13:08 33.82263 35.49374 23 ft 0 kts 16°
2026-05-04 13:15 33.82262 35.49374 20 ft 0 kts 16°
2026-05-04 13:24 33.82261 35.49373 20 ft 0 kts 16°
2026-05-04 13:31 33.82260 35.49373 22 ft 0 kts 16°
2026-05-04 13:38 33.82259 35.49373 22 ft 0 kts 16°
2026-05-04 13:44 33.82259 35.49372 24 ft 0 kts 16°
2026-05-04 13:44 33.82259 35.49373 24 ft 0 kts 16°
2026-05-04 13:44 33.82259 35.49372 24 ft 0 kts 16°
2026-05-04 13:45 33.82258 35.49372 24 ft 0 kts 16°
2026-05-04 13:49 33.82257 35.49372 24 ft 2 kts 16°
2026-05-04 13:49 33.82233 35.49363 24 ft 4 kts 20°
2026-05-04 13:50 33.82208 35.49350 22 ft 4 kts 31°
2026-05-04 13:50 33.82186 35.49323 24 ft 4 kts 90°
2026-05-04 13:50 33.82186 35.49316 24 ft 1 kts 105°
2026-05-04 13:52 33.82186 35.49315 24 ft 0 kts 105°
2026-05-04 13:52 33.82184 35.49323 24 ft 2 kts 105°
2026-05-04 13:53 33.82177 35.49353 23 ft 5 kts 107°
2026-05-04 13:53 33.82159 35.49404 22 ft 8 kts 115°
2026-05-04 13:53 33.82131 35.49473 24 ft 11 kts 116°
2026-05-04 13:54 33.82209 35.49628 23 ft 15 kts 35°
2026-05-04 13:54 33.82277 35.49685 23 ft 13 kts 35°
2026-05-04 13:54 33.82452 35.49835 23 ft 18 kts 36°
2026-05-04 13:55 33.82561 35.49925 23 ft 20 kts 36°
2026-05-04 13:55 33.82713 35.50055 24 ft 15 kts 35°
2026-05-04 13:55 33.82756 35.50099 23 ft 7 kts 55°
2026-05-04 13:56 33.82751 35.50166 32 ft 10 kts 120°
2026-05-04 13:56 33.82712 35.50239 35 ft 11 kts 123°
2026-05-04 13:56 33.82628 35.50258 36 ft 0 kts 210°
2026-05-04 13:57 33.82575 35.50218 36 ft 36 kts 213°
2026-05-04 13:58 33.80596 35.48704 518 ft 158 kts 211°
2026-05-04 13:58 33.78922 35.46666 1589 ft 190 kts 233°
2026-05-04 13:58 33.78141 35.45291 2027 ft 214 kts 234°
2026-05-04 13:59 33.77457 35.43648 2796 ft 228 kts 254°
2026-05-04 13:59 33.77528 35.41711 3743 ft 243 kts 284°
2026-05-04 13:59 33.79613 35.38322 5749 ft 257 kts 304°
2026-05-04 14:00 33.80788 35.36681 6728 ft 260 kts 304°
2026-05-04 14:00 33.83176 35.33351 8539 ft 265 kts 304°
2026-05-04 14:00 33.84384 35.31657 9453 ft 269 kts 304°
2026-05-04 14:01 33.85593 35.29956 10212 ft 277 kts 304°
2026-05-04 14:01 33.86888 35.28117 10488 ft 300 kts 304°
2026-05-04 14:01 33.89728 35.24086 11533 ft 323 kts 305°
2026-05-04 14:02 33.91192 35.22024 12314 ft 325 kts 305°
2026-05-04 14:02 33.92667 35.19944 13089 ft 327 kts 305°
2026-05-04 14:02 33.94146 35.17849 13877 ft 330 kts 305°
2026-05-04 14:02 33.95634 35.15735 14537 ft 333 kts 306°
2026-05-04 14:03 33.97141 35.13592 15148 ft 337 kts 305°
2026-05-04 14:03 33.98664 35.11426 15756 ft 341 kts 305°
2026-05-04 14:03 34.00207 35.09234 16360 ft 345 kts 306°
2026-05-04 14:03 34.01765 35.07019 16968 ft 348 kts 305°
2026-05-04 14:04 34.04926 35.02509 18191 ft 356 kts 305°
2026-05-04 14:04 34.06532 35.00215 18725 ft 360 kts 305°
2026-05-04 14:04 34.08158 34.97898 19300 ft 363 kts 306°
2026-05-04 14:05 34.11418 34.93248 20451 ft 368 kts 306°
2026-05-04 14:05 34.13074 34.90878 20978 ft 371 kts 306°
2026-05-04 14:05 34.14746 34.88486 21504 ft 374 kts 306°
2026-05-04 14:06 34.16429 34.86074 22010 ft 377 kts 306°
2026-05-04 14:06 34.18125 34.83641 22494 ft 380 kts 306°
2026-05-04 14:06 34.19834 34.81189 23009 ft 383 kts 306°
2026-05-04 14:06 34.21560 34.78711 23505 ft 386 kts 305°
2026-05-04 14:07 34.23293 34.76222 23938 ft 388 kts 305°
2026-05-04 14:07 34.24956 34.73656 24394 ft 386 kts 299°
2026-05-04 14:07 34.26468 34.70966 24844 ft 388 kts 300°
2026-05-04 14:07 34.27984 34.68269 25299 ft 389 kts 299°
2026-05-04 14:08 34.29508 34.65559 25755 ft 390 kts 299°
2026-05-04 14:08 34.31034 34.62845 26206 ft 390 kts 299°
2026-05-04 14:08 34.32564 34.60122 26655 ft 391 kts 298°
2026-05-04 14:08 34.34073 34.57431 27110 ft 392 kts 298°
2026-05-04 14:09 34.37142 34.51954 28029 ft 394 kts 297°
2026-05-04 14:09 34.38679 34.49201 28479 ft 395 kts 297°
2026-05-04 14:10 34.41800 34.43664 29241 ft 403 kts 301°
2026-05-04 14:10 34.43732 34.41135 29611 ft 415 kts 310°
2026-05-04 14:10 34.46085 34.39010 29990 ft 429 kts 320°
2026-05-04 14:10 34.48811 34.37415 30354 ft 442 kts 331°
2026-05-04 14:11 34.51830 34.36451 30808 ft 452 kts 340°
2026-05-04 14:11 34.57961 34.34979 31682 ft 451 kts 340°
2026-05-04 14:11 34.61034 34.34231 32134 ft 450 kts 340°
2026-05-04 14:12 34.64106 34.33480 32604 ft 449 kts 340°
2026-05-04 14:12 34.67165 34.32726 33074 ft 448 kts 339°
2026-05-04 14:12 34.79207 34.29749 34742 ft 447 kts 340°
2026-05-04 14:13 34.85325 34.28234 35337 ft 448 kts 340°
2026-05-04 14:13 34.91448 34.26714 35966 ft 449 kts 340°
2026-05-04 14:13 34.97574 34.25201 36563 ft 450 kts 340°
2026-05-04 14:13 35.03640 34.23699 37123 ft 452 kts 341°
2026-05-04 14:14 35.09810 34.22168 37657 ft 453 kts 341°
2026-05-04 14:14 35.22229 34.19077 37853 ft 455 kts 342°
2026-05-04 14:14 35.28409 34.17533 37835 ft 453 kts 342°
2026-05-04 14:15 35.53142 34.11311 37822 ft 453 kts 342°
2026-05-04 14:16 35.71590 34.06673 37842 ft 453 kts 342°
2026-05-04 14:17 35.90098 34.01867 37847 ft 448 kts 336°
2026-05-04 14:17 36.00767 33.94642 37843 ft 436 kts 323°
2026-05-04 14:18 36.05962 33.90728 37825 ft 437 kts 323°
2026-05-04 14:19 36.26623 33.75051 37801 ft 437 kts 323°
2026-05-04 14:19 36.36979 33.67151 37787 ft 438 kts 324°
2026-05-04 14:20 36.47385 33.59191 37804 ft 439 kts 324°
2026-05-04 14:20 36.57803 33.51210 37792 ft 440 kts 324°
2026-05-04 14:21 36.73269 33.39289 37817 ft 440 kts 324°
2026-05-04 14:21 36.85829 33.29426 37794 ft 438 kts 318°
2026-05-04 14:22 37.02311 33.07440 37856 ft 434 kts 310°
2026-05-04 14:22 37.18587 32.85127 37858 ft 433 kts 310°
2026-05-04 14:23 37.42858 32.51612 37847 ft 430 kts 310°
2026-05-04 14:24 37.58884 32.29250 37855 ft 430 kts 310°
2026-05-04 14:24 37.74821 32.06881 37907 ft 431 kts 311°
2026-05-04 14:25 37.90836 31.84261 37904 ft 431 kts 311°
2026-05-04 14:25 38.14567 31.49785 37952 ft 432 kts 310°
2026-05-04 14:26 38.30605 31.27093 37964 ft 430 kts 311°
2026-05-04 14:26 38.46496 31.04305 37986 ft 428 kts 311°
2026-05-04 14:27 38.62218 30.81431 37977 ft 428 kts 311°
2026-05-04 14:27 38.77909 30.58391 38002 ft 430 kts 311°
2026-05-04 14:28 38.87797 30.50031 38015 ft 431 kts 333°
2026-05-04 14:28 38.98537 30.43105 38023 ft 432 kts 332°
2026-05-04 14:28 39.20022 30.29293 38037 ft 435 kts 333°
2026-05-04 14:29 39.36907 30.18371 37915 ft 435 kts 333°